• Em Portugal
  • Lista de países
  • Para 7 dias
  • Temperatura da água
  • Mapas de satélite
  • Mapa do tempo
  • Widgets de tempo
  • user-avatar
    Iniciar Sessão

    Previsão horária em Orange Walk

    Hoje, 23 Setembro, Sábado

    Tempo Temperatura Precipitação Vento Pressão Humidade
    00:00 +27°C° 0 mm 1 m/s 755 mmHg 95%
    01:00 +26°C° 0,2 mm 1 m/s 754 mmHg 96%
    02:00 +26°C° 0,2 mm 1 m/s 754 mmHg 97%
    03:00 +26°C° 0,2 mm 1 m/s 754 mmHg 98%
    04:00 +26°C° 0,1 mm 1 m/s 754 mmHg 98%
    05:00 +26°C° 0,1 mm 1 m/s 754 mmHg 98%
    06:00 +26°C° 0,1 mm 1 m/s 754 mmHg 98%
    07:00 +28°C° 0 mm 1 m/s 755 mmHg 88%
    08:00 +30°C° 0 mm 1 m/s 755 mmHg 78%
    09:00 +32°C° 0 mm 2 m/s 755 mmHg 68%
    10:00 +35°C° 0 mm 2 m/s 755 mmHg 61%
    11:00 +36°C° 0 mm 2 m/s 755 mmHg 55%
    12:00 +37°C° 0 mm 2 m/s 754 mmHg 48%
    13:00 +37°C° 0 mm 2 m/s 753 mmHg 49%
    14:00 +37°C° 0 mm 2 m/s 753 mmHg 49%
    15:00 +37°C° 0 mm 2 m/s 752 mmHg 50%
    16:00 +35°C° 0,1 mm 2 m/s 752 mmHg 59%
    17:00 +32°C° 0,1 mm 2 m/s 752 mmHg 68%
    18:00 +30°C° 0,1 mm 2 m/s 753 mmHg 77%
    19:00 +29°C° 0 mm 2 m/s 753 mmHg 81%
    20:00 +28°C° 0 mm 2 m/s 754 mmHg 85%
    21:00 +27°C° 0 mm 2 m/s 754 mmHg 89%
    22:00 +27°C° 0 mm 1 m/s 754 mmHg 91%
    23:00 +27°C° 0 mm 1 m/s 754 mmHg 92%

    Amanhã, 24 Setembro, Domingo

    Tempo Temperatura Precipitação Vento Pressão Humidade
    00:00 +27°C° 0 mm 1 m/s 754 mmHg 94%
    01:00 +26°C° 0 mm 1 m/s 754 mmHg 94%
    02:00 +26°C° 0 mm 1 m/s 754 mmHg 95%
    03:00 +26°C° 0 mm 1 m/s 754 mmHg 96%
    04:00 +26°C° 0 mm 1 m/s 754 mmHg 96%
    05:00 +26°C° 0 mm 1 m/s 754 mmHg 96%
    06:00 +26°C° 0 mm 1 m/s 754 mmHg 96%
    07:00 +28°C° 0,1 mm 1 m/s 754 mmHg 87%
    08:00 +30°C° 0,1 mm 2 m/s 754 mmHg 77%
    09:00 +34°C° 0,1 mm 2 m/s 755 mmHg 68%
    10:00 +35°C° 0,1 mm 2 m/s 755 mmHg 62%
    11:00 +36°C° 0,1 mm 2 m/s 754 mmHg 57%
    12:00 +37°C° 0,1 mm 2 m/s 754 mmHg 51%
    13:00 +37°C° 0,3 mm 3 m/s 753 mmHg 55%
    14:00 +36°C° 0,3 mm 3 m/s 752 mmHg 58%
    15:00 +35°C° 0,3 mm 3 m/s 752 mmHg 62%
    16:00 +34°C° 0 mm 3 m/s 752 mmHg 68%
    17:00 +31°C° 0 mm 2 m/s 752 mmHg 75%
    18:00 +30°C° 0 mm 2 m/s 752 mmHg 82%
    19:00 +29°C° 0,3 mm 2 m/s 753 mmHg 86%
    20:00 +28°C° 0,3 mm 2 m/s 754 mmHg 91%
    21:00 +28°C° 0,3 mm 2 m/s 754 mmHg 95%
    22:00 +27°C° 0,3 mm 2 m/s 754 mmHg 96%
    23:00 +27°C° 0,3 mm 2 m/s 754 mmHg 96%

    Depois de amanhã, 25 Setembro, Segunda-feira

    Tempo Temperatura Precipitação Vento Pressão Humidade
    00:00 +27°C° 0,3 mm 2 m/s 754 mmHg 97%
    01:00 +27°C° 0,2 mm 2 m/s 754 mmHg 97%
    02:00 +27°C° 0,2 mm 2 m/s 753 mmHg 97%
    03:00 +26°C° 0,2 mm 2 m/s 753 mmHg 96%
    04:00 +26°C° 0,3 mm 2 m/s 753 mmHg 97%
    05:00 +26°C° 0,3 mm 2 m/s 753 mmHg 97%
    06:00 +26°C° 0,3 mm 2 m/s 753 mmHg 97%
    07:00 +27°C° 0,8 mm 2 m/s 754 mmHg 94%
    08:00 +28°C° 0,8 mm 2 m/s 754 mmHg 91%
    09:00 +29°C° 0,8 mm 3 m/s 755 mmHg 88%
    10:00 +30°C° 0,6 mm 3 m/s 754 mmHg 84%
    11:00 +31°C° 0,6 mm 3 m/s 754 mmHg 79%
    12:00 +33°C° 0,6 mm 3 m/s 754 mmHg 75%
    13:00 +33°C° 0,3 mm 3 m/s 753 mmHg 71%
    14:00 +33°C° 0,3 mm 3 m/s 752 mmHg 67%
    15:00 +34°C° 0,3 mm 3 m/s 752 mmHg 63%
    16:00 +31°C° 0,1 mm 3 m/s 752 mmHg 68%
    17:00 +30°C° 0,1 mm 3 m/s 752 mmHg 74%
    18:00 +29°C° 0,1 mm 2 m/s 752 mmHg 80%
    19:00 +28°C° 0,9 mm 2 m/s 753 mmHg 86%
    20:00 +28°C° 0,9 mm 2 m/s 753 mmHg 91%
    21:00 +27°C° 0,9 mm 2 m/s 754 mmHg 97%
    22:00 +27°C° 1,3 mm 2 m/s 754 mmHg 97%
    23:00 +27°C° 1,3 mm 2 m/s 753 mmHg 97%

    26 Setembro, Terça-feira

    Tempo Temperatura Precipitação Vento Pressão Humidade
    00:00 +27°C° 1,3 mm 2 m/s 753 mmHg 97%
    01:00 +27°C° 1,4 mm 2 m/s 753 mmHg 97%
    02:00 +27°C° 1,4 mm 2 m/s 752 mmHg 97%
    03:00 +27°C° 1,4 mm 2 m/s 752 mmHg 97%
    04:00 +27°C° 0,6 mm 2 m/s 752 mmHg 97%
    05:00 +27°C° 0,6 mm 2 m/s 752 mmHg 97%
    06:00 +27°C° 0,6 mm 2 m/s 753 mmHg 97%
    07:00 +28°C° 0,5 mm 3 m/s 753 mmHg 91%
    08:00 +29°C° 0,5 mm 3 m/s 753 mmHg 86%
    09:00 +32°C° 0,5 mm 4 m/s 754 mmHg 80%
    10:00 +32°C° 0,2 mm 4 m/s 753 mmHg 78%
    11:00 +33°C° 0,2 mm 4 m/s 753 mmHg 75%
    12:00 +34°C° 0,2 mm 4 m/s 752 mmHg 72%
    13:00 +33°C° 0,6 mm 3 m/s 752 mmHg 75%
    14:00 +33°C° 0,6 mm 3 m/s 751 mmHg 78%
    15:00 +31°C° 0,6 mm 3 m/s 751 mmHg 82%
    16:00 +31°C° 0 mm 3 m/s 751 mmHg 83%
    17:00 +30°C° 0 mm 3 m/s 751 mmHg 84%
    18:00 +30°C° 0 mm 2 m/s 751 mmHg 85%
    19:00 +29°C° 0,1 mm 2 m/s 752 mmHg 86%
    20:00 +29°C° 0,1 mm 2 m/s 752 mmHg 87%
    21:00 +29°C° 0,1 mm 2 m/s 753 mmHg 88%
    22:00 +29°C° 0,4 mm 2 m/s 753 mmHg 89%
    23:00 +28°C° 0,4 mm 2 m/s 752 mmHg 91%

    27 Setembro, Quarta-feira

    Tempo Temperatura Precipitação Vento Pressão Humidade
    00:00 +28°C° 0,4 mm 2 m/s 752 mmHg 92%
    01:00 +28°C° 0,1 mm 2 m/s 752 mmHg 92%
    02:00 +28°C° 0,1 mm 2 m/s 751 mmHg 92%
    03:00 +28°C° 0,1 mm 2 m/s 751 mmHg 92%
    04:00 +28°C° 0,5 mm 2 m/s 751 mmHg 93%
    05:00 +28°C° 0,5 mm 2 m/s 751 mmHg 93%
    06:00 +28°C° 0,5 mm 2 m/s 751 mmHg 93%
    07:00 +29°C° 1,1 mm 3 m/s 752 mmHg 91%
    08:00 +30°C° 1,1 mm 3 m/s 752 mmHg 88%
    09:00 +31°C° 1,1 mm 3 m/s 753 mmHg 85%
    10:00 +33°C° 1,1 mm 3 m/s 753 mmHg 81%
    11:00 +34°C° 1,1 mm 3 m/s 752 mmHg 77%
    12:00 +34°C° 1,1 mm 3 m/s 752 mmHg 73%
    13:00 +35°C° 0,4 mm 3 m/s 751 mmHg 70%
    14:00 +35°C° 0,4 mm 3 m/s 751 mmHg 66%
    15:00 +35°C° 0,4 mm 3 m/s 750 mmHg 62%
    16:00 +34°C° 0 mm 3 m/s 751 mmHg 69%
    17:00 +31°C° 0 mm 2 m/s 751 mmHg 76%
    18:00 +30°C° 0 mm 2 m/s 752 mmHg 83%
    19:00 +29°C° 0,4 mm 2 m/s 752 mmHg 87%
    20:00 +29°C° 0,4 mm 2 m/s 753 mmHg 91%
    21:00 +28°C° 0,4 mm 2 m/s 753 mmHg 95%
    22:00 +28°C° 0,7 mm 2 m/s 753 mmHg 96%
    23:00 +28°C° 0,7 mm 2 m/s 753 mmHg 97%

    28 Setembro, Quinta-feira

    Tempo Temperatura Precipitação Vento Pressão Humidade
    00:00 +27°C° 0,7 mm 1 m/s 753 mmHg 97%
    01:00 +27°C° 0,4 mm 1 m/s 752 mmHg 98%
    02:00 +27°C° 0,4 mm 1 m/s 752 mmHg 98%
    03:00 +27°C° 0,4 mm 1 m/s 752 mmHg 98%
    04:00 +27°C° 0,5 mm 1 m/s 752 mmHg 98%
    05:00 +27°C° 0,6 mm 1 m/s 752 mmHg 98%
    06:00 +27°C° 0,6 mm 1 m/s 753 mmHg 98%
    07:00 +29°C° 0,1 mm 1 m/s 753 mmHg 90%
    08:00 +31°C° 0,1 mm 1 m/s 753 mmHg 82%
    09:00 +33°C° 0,1 mm 1 m/s 754 mmHg 74%
    10:00 +35°C° 0,2 mm 2 m/s 753 mmHg 68%
    11:00 +36°C° 0,2 mm 2 m/s 753 mmHg 63%
    12:00 +37°C° 0,2 mm 2 m/s 752 mmHg 58%
    13:00 +36°C° 0,5 mm 3 m/s 752 mmHg 61%
    14:00 +36°C° 0,5 mm 3 m/s 751 mmHg 65%
    15:00 +35°C° 0,5 mm 3 m/s 751 mmHg 69%
    16:00 +34°C° 0,3 mm 3 m/s 751 mmHg 75%
    17:00 +31°C° 0,3 mm 2 m/s 752 mmHg 81%
    18:00 +30°C° 0,3 mm 2 m/s 752 mmHg 88%
    19:00 +29°C° 0,2 mm 2 m/s 753 mmHg 90%
    20:00 +29°C° 0,2 mm 2 m/s 753 mmHg 92%
    21:00 +28°C° 0,2 mm 2 m/s 754 mmHg 94%
    22:00 +28°C° 0 mm 2 m/s 754 mmHg 95%
    23:00 +28°C° 0 mm 2 m/s 753 mmHg 96%
    Mostrar mais